Tracking 31030 objects as of 17-Jul-2025
HD Live streaming from Space Station
objects crossing your sky now

SCOUT B DEB

Track SCOUT B DEB now!
10-day predictions


NORAD ID: 2800
Int'l Code: 1966-070D
Perigee: 408.3 km
Apogee: 2,642.7 km
Inclination: 81.4 °
Period: 116.4 minutes
Semi major axis: 7896 km
RCS: 0.0393 m2 (small)
Launch date: August 4, 1966
Source: United States (US)
Launch site: AIR FORCE WESTERN TEST RANGE (AFWTR)

Note: This is SATELLITE DEBRIS
Your satellite tracking list
Your tracking list is empty




NASA's NSSDC Master Catalog

Two Line Element Set (TLE):
1  2800U 66070D   25197.85643617  .00006883  00000-0  88557-3 0  9994
2  2800  81.4057 132.2364 1414840  65.5962 308.6053 12.37228168543190
Source of the keplerian elements: AFSPC